Regional Weather Roundup
Issued by NWS

Home | Current Version | Previous Version | Graphics & Text | Print | Product List | Glossary On
Versions: 1 2 3 4 5 6 7 8 9 10 11 12 13 14 15 16 17 18 19 20 21 22 23 24 25 26 27 28 29 30 31 32 33 34 35 36 37 38 39 40 41 42 43 44 45 46 47 48 49 50
000
ASUS43 KDMX 301003
RWRIA

WEATHER ROUNDUP FOR IOWA
NATIONAL WEATHER SERVICE DES MOINES IA
500 AM CDT SAT JUL 30 2016

NOTE: "FAIR" INDICATES FEW OR NO CLOUDS BELOW 12,000 FEET WITH NO
SIGNIFICANT WEATHER AND/OR OBSTRUCTIONS TO VISIBILITY.

* - THESE STATIONS ARE NOT NWS STATIONS...THUS NOT UNDER NWS
QUALITY CONTROL.  THEY ALSO DO NOT REPORT WEATHER SUCH
AS PRECIPITATION OR FOG.

IAZ001>003-012>014-020>022-031>034-043>046-301100-
   NORTHWEST IOWA

CITY           SKY/WX    TMP DP  RH WIND       PRES   REMARKS
CARROLL *      MOCLDY    61  61 100 CALM      30.02F
CHEROKEE *     CLEAR     58  58 100 CALM      30.03F
DENISON *      CLEAR     59  59 100 CALM      30.01S
LE MARS *      CLEAR     57  57 100 CALM      30.04S
SHELDON *      PTCLDY    52  52 100 CALM      30.03S
SIOUX CITY     FOG       59  57  93 CALM      30.02S VSB 1/4
SPENCER        CLEAR     53  51  93 CALM      30.04S
STORM LAKE *   CLEAR     59  59 100 N6        30.04S
$$

IAZ055>058-069>071-079>083-090>094-301100-
   SOUTHWEST IOWA

CITY           SKY/WX    TMP DP  RH WIND       PRES   REMARKS
ATLANTIC *     CLEAR     59  59 100 N5        30.02F
CLARINDA *       N/A     61  61 100 MISG      30.04S
COUNCIL BLFS *   N/A     61  61 100 N3        30.03S
CRESTON *      CLOUDY    63  61  94 NW5       30.04R
HARLAN  *      PTCLDY    57  57 100 CALM      30.06S
LAMONI         MOCLDY    63  62  97 NW5       30.01S
RED OAK *      CLEAR     59  59 100 CALM      30.02S
SHENANDOAH *   FOG       59  59 100 CALM      30.03R VSB 1/4
$$

IAZ047>049-059>061-072>074-084-301100-
   CENTRAL IOWA

CITY           SKY/WX    TMP DP  RH WIND       PRES   REMARKS
AMES           MOCLDY    62  62 100 NW6       30.01R
ANKENY *         N/A    N/A N/A N/A MISG        N/A
BOONE *          N/A     63  61  94 NW5       30.02R
CHARITON *       N/A    N/A N/A N/A MISG        N/A
DES MOINES     CLOUDY    68  65  90 N6        29.99S
GRINNELL*      CLOUDY    65  64  94 CALM      30.00R FOG
KNOXVILLE *    CLOUDY    66  64  94 NW6       29.98S
MARSHALLTOWN   CLOUDY    63  63 100 N6        29.99R FOG
NEWTON *       CLOUDY    66  66 100 N5        29.99S
PELLA *        CLOUDY    66  65  96 NW3       30.00S
PERRY *        CLOUDY    63  63  99 CALM      30.02R
$$

IAZ004>006-015-016-023>025-035-036-301100-
   NORTH CENTRAL IOWA

CITY           SKY/WX    TMP DP  RH WIND       PRES   REMARKS
ALGONA *       CLOUDY    63  61  94 N3        30.03S
ESTHERVILLE    PTCLDY    54  54 100 NW3       30.03F
FORT DODGE *   CLOUDY    64  63  94 CALM      30.03R
MASON CITY     CLOUDY    62  61  96 N3        30.03F
FOREST CITY *  CLOUDY    63  63 100 CALM      30.02S
IOWA FALLS *   FOG       62  61  96 CALM      30.02R VSB 1
$$

IAZ007>011-017>019-026>030-037>042-050>054-066-301100-
   NORTHEAST IOWA

CITY           SKY/WX    TMP DP  RH WIND       PRES   REMARKS
CEDAR RAPIDS   CLOUDY    68  68 100 N5        29.97R
CHARLES CITY * PTCLDY    63  63 100 N3        30.01S FOG
CLINTON *      CLOUDY    66  66 100 N5        29.97R
DECORAH *      CLOUDY    64  64 100 NE6       30.00F
DUBUQUE        CLOUDY    65  63  93 NE8       29.99S
MONTICELLO *   CLOUDY    66  66 100 N3        29.98R
OELWEIN *      PTCLDY    64  64 100 NE5       30.00S FOG
WATERLOO       PTCLDY    64  63  96 CALM      29.98S
$$

IAZ064-065-067-068-078-301100-
   EAST CENTRAL IOWA

CITY           SKY/WX    TMP DP  RH WIND       PRES   REMARKS
DAVENPORT      CLOUDY    68  65  90 NE6       29.97R
IOWA CITY      CLOUDY    69  66  90 NE5       29.98R
MT. PLEASANT * CLOUDY    70  70 100 CALM      29.96S FOG
MUSCATINE *    CLOUDY    68  66  94 N5        29.96S
QUAD CITIES    CLOUDY    71  65  81 CALM      29.95R
$$

IAZ062-063-075>077-085>089-095>099-301100-
   SOUTHEAST IOWA

CITY           SKY/WX    TMP DP  RH WIND       PRES   REMARKS
BURLINGTON     CLOUDY    68  68 100 NW3       29.95R FOG
FAIRFIELD *    CLOUDY    66  66 100 NW5       29.96S FOG
KEOKUK *       CLOUDY    68  68 100 W3        29.95S
CENTERVILLE *  CLOUDY    66  64  94 CALM      30.00S
OTTUMWA        CLOUDY    66  65  96 NW5       29.98R
WASHINGTON *   CLOUDY    68  66  94 N5        29.98R FOG
$$

ABBREVIATIONS USED IN REMARKS
   TC - TEMPERATURES IN CELSIUS
  WCI - WIND CHILL INDEX
   HX - HEAT INDEX
  VSB - VISIBILITY
$$





USA.gov is the U.S. government's official web portal to all federal, state and local government web resources and services.